This is the latest recevied weather packets stored in our database for station/object SP1BMW-13. If no packets are shown the sender has not sent any weather packets the latest 10 day(s).
| Time | Temp. | Humidity | Pressure | Rain* | Wind** | Luminosity | Snow |
|---|---|---|---|---|---|---|---|
| 1787418002 | 19.44° C | 57% | 1011.7 hPa | 0 mm | 2.68 m/s, 253° | 58 W/m² | - |
| 1787417943 | 19.44° C | 57% | 1011.7 hPa | 0 mm | 1.79 m/s, 276° | 62 W/m² | - |
| 1787417882 | 19.44° C | 57% | 1011.6 hPa | 0 mm | 1.34 m/s, 292° | 91 W/m² | - |
| 1787417823 | 19.44° C | 56% | 1011.8 hPa | 0 mm | 2.68 m/s, 315° | 99 W/m² | - |
| 1787417763 | 19.44° C | 56% | 1011.8 hPa | 0 mm | 2.68 m/s, 338° | 99 W/m² | - |
| 1787417703 | 19.44° C | 57% | 1011.7 hPa | 0 mm | 1.79 m/s, 255° | 99 W/m² | - |
| 1787417643 | 19.44° C | 57% | 1011.7 hPa | 0 mm | 3.13 m/s, 238° | 103 W/m² | - |
| 1787417583 | 19.44° C | 57% | 1011.7 hPa | 0 mm | 1.34 m/s, 270° | 106 W/m² | - |
| 1787417523 | 19.44° C | 57% | 1011.7 hPa | 0 mm | 1.34 m/s, 237° | 107 W/m² | - |
| 1787417463 | 19.44° C | 57% | 1011.8 hPa | 0 mm | 1.79 m/s, 305° | 107 W/m² | - |
| 1787417402 | 19.44° C | 57% | 1011.8 hPa | 0 mm | 0.89 m/s, 284° | 100 W/m² | - |
| 1787417342 | 19.44° C | 57% | 1011.8 hPa | 0 mm | 0.89 m/s, 346° | 97 W/m² | - |
| 1787417282 | 19.44° C | 57% | 1011.7 hPa | 0 mm | 1.79 m/s, 258° | 98 W/m² | - |
| 1787417223 | 19.44° C | 57% | 1011.6 hPa | 0 mm | 1.79 m/s, 182° | 84 W/m² | - |
| 1787417163 | 19.44° C | 57% | 1011.6 hPa | 0 mm | 1.34 m/s, 325° | 82 W/m² | - |
| 1787417103 | 19.44° C | 57% | 1011.7 hPa | 0 mm | 1.79 m/s, 248° | 122 W/m² | - |
| 1787417043 | 19.44° C | 58% | 1011.7 hPa | 0 mm | 0.89 m/s, 242° | 110 W/m² | - |
| 1787416982 | 18.89° C | 59% | 1011.6 hPa | 0 mm | 0.45 m/s, 208° | 116 W/m² | - |
| 1787416923 | 18.89° C | 58% | 1011.7 hPa | 0 mm | 1.34 m/s, 285° | 93 W/m² | - |
| 1787416863 | 18.89° C | 58% | 1011.5 hPa | 0 mm | 0.89 m/s, 254° | 76 W/m² | - |
| 1787416803 | 18.89° C | 58% | 1011.6 hPa | 0 mm | 0.89 m/s, 265° | 72 W/m² | - |
| 1787416743 | 18.89° C | 58% | 1011.5 hPa | 0 mm | 0.45 m/s, 252° | 71 W/m² | - |
| 1787416682 | 18.89° C | 58% | 1011.6 hPa | 0 mm | 1.79 m/s, 239° | 75 W/m² | - |
| 1787416623 | 18.89° C | 58% | 1011.5 hPa | 0 mm | 0.89 m/s, 211° | 67 W/m² | - |
| 1787416563 | 18.89° C | 59% | 1011.6 hPa | 0 mm | 0.89 m/s, 252° | 64 W/m² | - |
* Rain latest hour (hover to see other rain measurements)
** Current wind speed in m/s (hover to see current wind gust speed)